| time (UTC) | temp C | wind direction | speed KPH | gust KPH | rain 1hr cm | rain 24hr cm | rain mn cm | humidity % | barometer mb |
| 20260504214633 | 16 | 35 | 1.6 | 0.0 | 0.00 | 0.00 | 0.05 | 88 | 1009.4 |
| 20260504213103 | 16 | 38 | 1.6 | 0.0 | 0.00 | 0.00 | 0.05 | 88 | 1009.6 |
| 20260504211503 | 17 | 38 | 1.6 | 0.0 | 0.00 | 0.00 | 0.05 | 88 | 1009.9 |
| 20260504210121 | 17 | 49 | 0.0 | 0.0 | 0.00 | 0.00 | 0.05 | 88 | 1009.8 |
| 20260504204559 | 17 | 47 | 0.0 | 0.0 | 0.00 | 0.00 | 0.05 | 87 | 1009.6 |
| 20260504203143 | 17 | 46 | 3.2 | 0.0 | 0.00 | 0.00 | 0.05 | 87 | 1009.4 |
| 20260504201613 | 17 | 61 | 0.0 | 0.0 | 0.00 | 0.00 | 0.05 | 87 | 1009.3 |
| 20260504200005 | 17 | 63 | 3.2 | 0.0 | 0.00 | 0.00 | 0.05 | 87 | 1009.0 |
| 20260504194628 | 17 | 62 | 1.6 | 0.0 | 0.00 | 0.00 | 0.05 | 88 | 1009.0 |
| 20260504193018 | 17 | 70 | 1.6 | 0.0 | 0.00 | 0.00 | 0.05 | 87 | 1008.7 |
| 20260504191502 | 17 | 69 | 4.8 | 0.0 | 0.00 | 0.00 | 0.05 | 87 | 1008.3 |
| 20260504190129 | 17 | 55 | 4.8 | 0.0 | 0.00 | 0.00 | 0.05 | 87 | 1008.0 |
| 20260504184611 | 17 | 65 | 6.4 | 0.0 | 0.00 | 0.00 | 0.05 | 87 | 1008.2 |
| 20260504183024 | 17 | 70 | 4.8 | 0.0 | 0.00 | 0.00 | 0.05 | 87 | 1008.0 |
| 20260504181504 | 17 | 67 | 4.8 | 0.0 | 0.00 | 0.00 | 0.05 | 87 | 1007.9 |
| 20260504180130 | 17 | 69 | 3.2 | 0.0 | 0.00 | 0.00 | 0.05 | 87 | 1008.1 |
| 20260504174611 | 17 | 60 | 6.4 | 0.0 | 0.00 | 0.00 | 0.05 | 86 | 1008.2 |
| 20260504173057 | 18 | 54 | 8.0 | 0.0 | 0.00 | 0.00 | 0.03 | 85 | 1008.4 |
| 20260504171510 | 18 | 59 | 11.3 | 0.0 | 0.00 | 0.00 | 0.00 | 83 | 1008.4 |
| 20260504170134 | 18 | 58 | 11.3 | 0.0 | 0.00 | 0.00 | 0.00 | 82 | 1008.5 |
| 20260504160136 | 18 | 360 | 9.7 | 0.0 | 0.00 | 0.00 | 0.00 | 84 | 1009.0 |
| 20260504150136 | 19 | 360 | 8.0 | 0.0 | 0.00 | 0.00 | 0.00 | 81 | 1008.9 |
| 20260504140138 | 21 | 87 | 19.3 | 0.0 | 0.00 | 0.00 | 0.00 | 70 | 1008.7 |
| 20260504130143 | 21 | 219 | 19.3 | 0.0 | 0.00 | 0.00 | 0.00 | 70 | 1008.8 |
| 20260504120140 | 21 | 90 | 12.9 | 0.0 | 0.00 | 0.00 | 0.00 | 69 | 1009.4 |
| 20260504110134 | 21 | 138 | 17.7 | 0.0 | 0.00 | 0.00 | 0.00 | 69 | 1009.7 |
| 20260504081616 | 20 | 102 | 8.0 | 0.0 | 0.00 | 0.00 | 0.00 | 69 | 1010.0 |
| 20260504070106 | 17 | 103 | 6.4 | 0.0 | 0.00 | 0.00 | 0.00 | 83 | 1010.3 |
| 20260504060115 | 15 | 122 | 0.0 | 0.0 | 0.00 | 0.00 | 0.00 | 88 | 1010.3 |
| 20260504050123 | 15 | 192 | 1.6 | 0.0 | 0.00 | 0.00 | 0.00 | 88 | 1010.5 |
| 20260504044602 | 15 | 193 | 3.2 | 0.0 | 0.00 | 0.00 | 0.00 | 88 | 1010.5 |
| 20260504043012 | 15 | 188 | 4.8 | 0.0 | 0.00 | 0.00 | 0.00 | 88 | 1010.5 |
| 20260504041635 | 15 | 179 | 3.2 | 0.0 | 0.00 | 0.00 | 0.00 | 88 | 1010.7 |
| 20260504040109 | 15 | 188 | 4.8 | 0.0 | 0.00 | 0.00 | 0.00 | 88 | 1010.8 |
| 20260504034518 | 15 | 181 | 4.8 | 0.0 | 0.00 | 0.00 | 0.00 | 88 | 1010.9 |
| 20260504033141 | 15 | 191 | 4.8 | 0.0 | 0.00 | 0.00 | 0.00 | 89 | 1011.0 |
| 20260504031628 | 15 | 208 | 4.8 | 0.0 | 0.00 | 0.00 | 0.00 | 89 | 1011.2 |
| 20260504030119 | 15 | 198 | 4.8 | 0.0 | 0.00 | 0.00 | 0.00 | 88 | 1011.3 |
| 20260504024516 | 15 | 185 | 4.8 | 0.0 | 0.00 | 0.00 | 0.00 | 88 | 1011.3 |
| 20260504023144 | 15 | 188 | 4.8 | 0.0 | 0.00 | 0.00 | 0.00 | 88 | 1011.4 |
| 20260504021625 | 15 | 220 | 1.6 | 0.0 | 0.00 | 0.00 | 0.00 | 88 | 1011.4 |
| 20260504020005 | 15 | 221 | 0.0 | 0.0 | 0.00 | 0.00 | 0.00 | 88 | 1011.5 |
| 20260504014634 | 15 | 221 | 0.0 | 0.0 | 0.00 | 0.00 | 0.00 | 88 | 1011.6 |
| 20260504013117 | 15 | 221 | 1.6 | 0.0 | 0.00 | 0.00 | 0.00 | 88 | 1011.6 |
| 20260504011529 | 15 | 221 | 0.0 | 0.0 | 0.00 | 0.00 | 0.00 | 88 | 1011.7 |
| 20260504010003 | 16 | 220 | 0.0 | 0.0 | 0.00 | 0.00 | 0.00 | 88 | 1011.7 |
| 20260504004639 | 16 | 221 | 0.0 | 0.0 | 0.00 | 0.00 | 0.00 | 88 | 1011.7 |
| 20260504003119 | 16 | 220 | 3.2 | 0.0 | 0.00 | 0.00 | 0.00 | 88 | 1011.9 |
| 20260504001607 | 16 | 226 | 3.2 | 0.0 | 0.00 | 0.00 | 0.00 | 88 | 1011.9 |
| 20260504000009 | 16 | 227 | 4.8 | 0.0 | 0.00 | 0.00 | 0.00 | 87 | 1012.1 |
| 20260503234642 | 16 | 239 | 4.8 | 0.0 | 0.00 | 0.00 | 0.00 | 87 | 1012.3 |
| 20260503233124 | 16 | 180 | 3.2 | 0.0 | 0.00 | 0.00 | 0.00 | 87 | 1012.5 |
| 20260503231605 | 16 | 166 | 1.6 | 0.0 | 0.00 | 0.00 | 0.00 | 87 | 1012.4 |
| 20260503230012 | 16 | 166 | 0.0 | 0.0 | 0.00 | 0.00 | 0.00 | 86 | 1012.7 |
| 20260503224621 | 16 | 167 | 0.0 | 0.0 | 0.00 | 0.00 | 0.00 | 86 | 1012.9 |
| 20260503223008 | 16 | 167 | 1.6 | 0.0 | 0.00 | 0.00 | 0.00 | 86 | 1013.1 |
| 20260503221625 | 16 | 166 | 3.2 | 0.0 | 0.00 | 0.00 | 0.00 | 86 | 1013.1 |
| 20260503220152 | 16 | 168 | 3.2 | 0.0 | 0.00 | 0.00 | 0.00 | 86 | 1013.1 |